Wind_Speed
6 7 7 7 8 8 7 7 6 5 5 4 4 3 3 3 3 4 4 5 6 6 6 7 8 9 9 9 9 9 9 10 10 11 11 12 12 14 14 15 15 14 14
6 7 7 8 8 8 7 7 6 5 4 4 4 4 3 3 4 4 4 5 5 6 7 7 8 9 9 9 9 9 9 10 10 11 11 12 12 13 14 14 14 14 14
5 6 7 8 8 7 7 7 6 5 5 4 4 3 3 4 4 4 5 5 5 6 6 7 8 9 9 9 9 9 9 10 11 11 11 12 12 13 14 14 14 14 14
5 6 7 7 7 7 7 7 6 5 5 5 4 4 4 4 4 5 5 5 5 6 6 7 7 8 8 9 9 10 10 11 11 12 12 11 12 13 13 14 15 15 15
5 6 6 7 7 7 7 7 6 6 5 5 5 5 5 5 5 5 6 6 6 6 7 7 7 8 8 9 10 10 10 10 11 11 12 11 12 12 13 14 15 15 16
5 6 6 7 7 7 7 7 6 6 6 6 6 5 6 6 6 6 6 6 6 7 7 7 8 8 9 9 10 11 11 11 11 11 12 11 11 12 12 14 15 16 17
6 6 6 7 7 7 7 7 6 6 6 6 7 7 7 6 6 6 6 6 7 7 7 8 8 9 10 10 11 11 12 12 12 12 13 12 13 13 14 15 16 16 17
7 7 7 7 8 7 7 7 6 6 6 7 7 7 7 7 7 7 7 7 7 8 8 9 9 10 11 11 11 12 12 13 13 13 13 13 13 14 15 16 17 17 18
7 7 7 7 7 7 7 7 7 7 7 7 8 8 8 8 8 8 8 8 9 9 9 9 10 11 11 11 12 12 12 12 13 13 14 14 14 14 15 16 17 18 18
7 7 7 7 7 7 7 7 7 7 8 8 8 8 9 9 9 10 9 9 9 10 10 10 11 11 12 12 12 13 13 13 14 14 15 15 15 15 15 16 17 18 19
7 7 8 8 8 7 7 7 8 9 9 9 9 9 10 10 10 10 11 11 10 11 11 11 12 12 13 13 13 13 14 14 15 15 16 16 15 15 15 15 16 17 18
8 8 8 8 8 9 9 9 9 10 10 10 10 11 11 11 11 11 11 12 12 12 13 13 13 14 14 14 15 15 15 15 15 16 16 16 16 16 16 17 17 17 18
9 10 9 10 10 10 10 10 10 10 10 11 11 11 12 12 12 12 12 12 12 12 13 13 14 14 14 15 15 15 15 15 16 16 16 16 16 17 17 18 18 18 19
11 11 11 11 12 11 11 11 11 11 11 12 12 13 13 13 13 13 13 13 12 13 13 14 15 15 15 15 15 16 16 16 16 17 17 17 17 18 18 19 19 19 20
12 12 13 13 13 13 13 12 13 13 13 13 13 14 14 14 14 14 14 14 14 14 14 15 15 16 16 16 16 16 17 17 17 17 18 18 18 19 19 20 21 22 22
13 14 14 14 14 14 14 14 14 15 15 15 15 15 15 15 15 15 16 16 16 16 16 16 17 17 17 17 17 17 17 18 18 19 20 20 20 21 21 22 23 24 25
14 15 15 15 15 15 16 16 16 16 17 17 17 17 16 16 16 16 17 17 18 18 18 18 18 19 19 19 19 19 19 19 20 21 22 22 23 23 24 25 25 26 28
15 16 16 16 16 16 17 17 17 17 18 18 18 18 18 18 18 18 18 19 19 19 20 20 20 21 21 22 22 22 22 22 22 22 23 24 25 25 26 27 28 29 29
17 17 17 17 18 18 18 18 18 18 19 19 19 20 19 19 20 20 21 21 21 21 22 22 22 23 23 24 24 24 25 25 25 25 26 26 27 28 29 30 31 32 32
18 18 19 18 18 18 18 18 18 19 19 20 20 20 21 21 21 22 22 22 22 23 24 24 24 24 25 25 26 26 27 27 28 29 29 30 31 31 32 32 33 34 35
19 19 19 19 18 19 19 19 19 19 20 21 21 22 22 23 23 23 24 24 24 25 25 26 26 26 27 27 28 28 29 30 30 30 31 32 32 33 33 34 35 36 37
19 19 19 20 20 20 20 21 21 21 22 22 22 22 23 24 24 24 25 25 26 26 27 27 28 28 28 29 29 30 30 31 31 32 32 33 34 34 35 36 37 37 38
19 19 20 20 21 22 22 22 23 23 23 23 23 24 24 25 25 26 26 27 27 28 28 29 29 30 30 30 31 31 31 32 32 33 34 34 35 36 37 38 38 39 40
20 21 21 21 21 22 22 22 22 22 23 24 24 24 25 26 27 27 28 28 28 29 30 30 30 31 31 32 32 33 33 34 35 36 37 37 38 39 39 39 40 41 41
21 22 22 22 22 22 22 23 23 23 24 25 26 26 26 27 27 28 29 29 30 30 31 31 32 33 34 35 36 36 37 38 38 39 41 41 41 41 41 42 43 43 43
22 23 23 23 23 23 24 24 24 24 25 25 26 27 27 28 28 29 30 31 31 32 33 33 34 36 37 38 38 39 40 41 42 42 43 43 43 44 43 44 45 46 46
Wind_Direction
358 358 356 352 351 353 356 359 2 6 3 358 352 341 329 317 304 300 292 287 281 274 269 265 263 261 261 259 256 257 259 260 261 261 262 261 260 259 254 250 246 246 246
351 351 348 351 353 355 358 359 4 6 3 360 355 346 334 323 312 304 297 289 281 275 272 266 264 263 260 258 257 260 261 263 262 264 266 266 265 262 256 248 244 245 245
346 346 349 351 354 355 355 358 4 3 355 351 350 344 339 335 322 313 304 292 280 275 272 269 268 265 263 264 262 263 262 262 263 266 270 269 266 262 254 247 246 248 247
339 343 344 348 353 355 354 355 356 354 349 342 339 337 333 329 323 317 310 300 289 280 276 271 269 267 267 266 265 265 263 262 263 265 270 270 266 262 257 252 251 251 249
325 332 335 339 346 348 349 349 348 347 345 338 332 330 330 327 321 317 309 301 292 282 279 277 272 267 267 266 266 267 266 264 265 266 269 270 269 264 259 253 250 250 249
309 316 323 326 335 342 342 343 342 341 339 337 332 329 330 326 318 316 311 304 296 286 280 277 276 272 272 271 269 269 270 267 268 267 268 268 268 266 261 256 253 252 250
299 305 313 320 328 333 335 336 335 336 336 335 335 333 333 330 321 318 309 306 299 294 287 281 278 277 278 277 276 274 273 269 268 268 268 268 266 264 261 258 255 254 253
295 298 307 319 320 322 330 332 331 332 331 330 328 328 328 329 322 315 307 302 297 295 291 287 283 280 281 280 281 280 276 271 267 266 265 266 266 262 260 258 255 254 251
294 300 309 314 316 318 322 324 324 324 325 324 321 320 319 320 322 318 311 305 302 298 293 292 290 285 285 285 285 285 280 271 264 264 265 267 266 265 262 259 258 255 252
297 303 307 311 314 316 318 318 317 318 319 320 318 317 316 315 314 315 316 311 303 300 298 294 292 290 288 288 288 286 280 274 270 269 270 269 268 268 266 263 261 255 250
294 300 304 306 307 309 310 312 313 312 312 313 315 315 315 314 312 310 311 311 309 306 303 299 295 293 292 289 287 285 282 280 277 275 273 272 270 270 267 265 261 256 252
292 297 299 300 303 305 306 308 310 309 308 309 309 310 311 311 309 308 307 307 308 308 306 305 301 297 295 292 289 287 285 284 282 279 276 274 272 271 268 265 263 259 257
287 291 295 298 300 303 304 304 306 306 307 308 308 307 308 308 308 308 308 308 309 309 309 308 307 304 300 297 293 291 289 287 285 282 280 278 275 271 269 267 265 261 259
286 288 290 294 296 298 300 301 301 301 304 306 307 308 307 307 305 305 306 306 306 306 307 307 308 307 305 301 298 295 293 291 287 284 281 280 277 273 270 269 268 266 264
284 286 288 290 294 295 295 296 298 297 299 301 304 306 306 304 304 303 303 302 302 301 303 305 307 307 308 305 301 297 295 292 288 285 283 281 279 276 272 270 269 269 269
284 286 289 290 291 292 293 295 297 297 298 300 301 302 302 301 301 303 302 301 300 301 302 303 304 305 306 306 303 300 296 293 290 288 284 282 280 277 275 273 271 270 270
284 287 290 291 291 291 293 293 295 296 297 297 298 299 299 299 299 301 301 300 299 299 300 301 301 301 302 303 302 300 297 294 292 289 287 284 281 279 277 275 274 273 272
284 286 290 291 292 293 294 293 294 295 295 296 296 296 298 297 298 298 299 298 298 298 299 298 298 298 299 299 299 297 296 293 292 290 288 286 284 282 281 279 276 276 275
282 284 288 290 291 293 294 294 294 294 294 295 296 296 296 296 297 297 297 297 297 297 297 297 297 297 298 298 298 296 295 295 293 291 289 287 285 283 282 281 279 278 277
281 282 286 288 289 291 292 293 294 294 293 294 295 295 296 296 296 296 297 298 297 296 296 297 297 297 297 297 297 297 296 295 294 293 291 290 287 285 283 282 281 279 278
282 284 285 286 288 289 291 292 294 294 294 295 294 294 295 295 295 296 296 296 296 295 296 296 297 297 297 296 296 297 297 296 294 293 292 292 290 288 287 285 283 281 279
284 285 285 286 287 288 289 290 291 293 294 294 294 294 295 297 297 298 298 297 297 296 296 297 297 297 297 297 297 297 297 296 295 294 294 293 292 290 289 287 285 283 280
285 287 287 288 288 289 290 291 292 292 293 293 293 293 295 296 297 298 298 298 297 297 297 297 297 297 298 297 296 296 296 296 296 295 294 295 294 292 291 289 286 284 282
285 287 288 287 290 292 293 292 293 293 292 293 294 295 295 295 295 296 298 297 297 297 297 298 298 299 299 298 297 296 295 296 296 296 295 295 294 293 292 290 288 287 285
286 286 288 289 291 291 292 293 293 292 292 293 294 294 295 295 296 297 298 298 297 297 297 296 297 298 298 297 297 296 295 296 296 296 296 295 295 293 292 291 290 289 288
287 287 287 290 290 290 290 291 292 292 292 294 295 295 295 296 296 298 299 298 298 297 297 297 297 298 298 297 297 296 296 296 296 296 295 295 294 293 292 291 290 290 289
Height
5887 5885 5884 5883 5881 5880 5879 5877 5876 5875 5875 5874 5874 5873 5873 5873 5873 5873 5872 5872 5872 5872 5872 5872 5873 5873 5874 5874 5874 5875 5875 5875 5876 5876 5876 5875 5875 5873 5873 5875 5878 5879 5881
5887 5885 5884 5883 5881 5880 5879 5878 5876 5876 5875 5874 5874 5873 5873 5872 5872 5872 5871 5871 5871 5871 5870 5870 5871 5871 5871 5872 5872 5873 5873 5873 5873 5873 5873 5872 5871 5869 5869 5870 5874 5876 5878
5886 5885 5884 5883 5881 5880 5879 5877 5876 5876 5875 5874 5874 5873 5872 5872 5871 5871 5870 5870 5869 5869 5869 5869 5869 5869 5870 5870 5870 5870 5871 5871 5871 5871 5870 5870 5868 5866 5866 5868 5871 5873 5875
5886 5885 5884 5883 5881 5880 5879 5877 5877 5876 5875 5874 5873 5873 5872 5871 5870 5869 5869 5868 5868 5868 5867 5867 5867 5868 5868 5868 5868 5868 5868 5868 5868 5868 5868 5867 5866 5865 5865 5866 5869 5870 5872
5885 5884 5883 5882 5881 5880 5879 5878 5877 5876 5875 5874 5873 5872 5871 5870 5869 5869 5868 5867 5866 5866 5866 5866 5866 5866 5866 5866 5866 5866 5866 5865 5866 5865 5865 5865 5864 5864 5864 5865 5866 5867 5869
5885 5884 5883 5882 5881 5880 5879 5877 5876 5875 5874 5873 5873 5872 5871 5869 5868 5868 5867 5866 5865 5865 5864 5864 5864 5864 5864 5864 5864 5864 5863 5863 5863 5862 5862 5862 5862 5862 5862 5862 5863 5864 5865
5884 5883 5882 5881 5880 5879 5878 5877 5876 5875 5874 5873 5872 5871 5870 5869 5867 5866 5866 5865 5864 5863 5863 5862 5862 5862 5862 5861 5861 5861 5860 5860 5860 5859 5859 5859 5859 5859 5859 5860 5860 5861 5862
5882 5882 5881 5880 5879 5878 5877 5876 5875 5874 5873 5872 5872 5870 5869 5868 5867 5865 5864 5863 5863 5862 5861 5861 5860 5860 5859 5859 5858 5858 5857 5856 5856 5856 5856 5856 5856 5856 5856 5856 5856 5857 5858
5881 5880 5880 5879 5878 5877 5876 5875 5874 5873 5872 5871 5870 5870 5868 5867 5866 5865 5863 5862 5861 5860 5859 5859 5858 5857 5857 5856 5855 5854 5853 5852 5852 5853 5853 5853 5853 5852 5852 5852 5852 5852 5853
5879 5879 5878 5877 5876 5876 5875 5874 5873 5872 5871 5870 5869 5868 5867 5866 5864 5863 5862 5861 5860 5858 5857 5856 5856 5855 5854 5853 5852 5851 5850 5848 5849 5849 5849 5849 5849 5848 5848 5848 5847 5847 5848
5878 5877 5876 5876 5875 5874 5873 5872 5871 5871 5869 5868 5867 5866 5865 5864 5863 5861 5860 5859 5858 5857 5855 5854 5853 5852 5851 5850 5849 5848 5847 5846 5846 5845 5845 5844 5844 5844 5844 5844 5843 5843 5844
5876 5876 5875 5874 5873 5873 5872 5871 5870 5869 5868 5866 5865 5864 5863 5862 5861 5859 5858 5857 5856 5854 5853 5852 5850 5849 5848 5847 5845 5844 5843 5843 5842 5841 5840 5840 5840 5840 5840 5840 5840 5840 5840
5874 5874 5873 5872 5872 5871 5870 5868 5868 5867 5865 5864 5863 5862 5861 5859 5858 5857 5856 5855 5853 5852 5851 5849 5847 5846 5845 5843 5842 5840 5839 5838 5837 5837 5836 5836 5835 5835 5835 5836 5836 5836 5836
5872 5871 5871 5870 5869 5868 5867 5866 5865 5864 5863 5862 5861 5859 5858 5857 5855 5854 5853 5852 5851 5850 5848 5846 5845 5843 5841 5840 5838 5837 5835 5834 5833 5832 5832 5831 5831 5830 5830 5831 5831 5831 5831
5869 5868 5868 5867 5866 5865 5864 5863 5862 5861 5860 5859 5858 5856 5855 5854 5852 5851 5850 5849 5848 5847 5845 5843 5842 5840 5838 5836 5834 5833 5831 5830 5828 5827 5827 5826 5826 5825 5825 5825 5826 5826 5826
5866 5865 5865 5864 5863 5862 5861 5860 5859 5858 5857 5856 5854 5853 5852 5851 5849 5848 5847 5846 5844 5843 5842 5840 5838 5836 5834 5832 5830 5828 5827 5825 5824 5823 5822 5821 5820 5820 5820 5820 5819 5819 5819
5863 5862 5861 5860 5859 5859 5858 5857 5856 5854 5853 5852 5851 5850 5848 5847 5846 5844 5843 5842 5840 5839 5838 5836 5834 5832 5830 5828 5826 5824 5823 5821 5819 5818 5817 5815 5814 5814 5813 5813 5812 5812 5811
5859 5859 5858 5857 5856 5855 5854 5853 5852 5850 5849 5848 5847 5846 5844 5843 5842 5840 5839 5837 5836 5834 5833 5831 5829 5828 5826 5823 5821 5820 5818 5816 5814 5812 5811 5810 5808 5807 5806 5805 5804 5804 5803
5855 5855 5854 5853 5852 5851 5850 5849 5847 5846 5845 5844 5843 5841 5840 5839 5837 5836 5834 5833 5831 5829 5828 5826 5824 5822 5820 5818 5816 5814 5812 5810 5808 5806 5804 5802 5801 5799 5798 5797 5796 5795 5794
5851 5851 5850 5849 5848 5847 5845 5844 5843 5842 5840 5839 5838 5836 5835 5834 5832 5831 5829 5827 5826 5824 5822 5820 5819 5817 5814 5812 5810 5808 5806 5803 5801 5799 5796 5794 5792 5791 5789 5788 5786 5785 5783
5847 5846 5845 5844 5843 5842 5841 5840 5838 5837 5836 5834 5833 5831 5830 5828 5827 5825 5823 5822 5820 5818 5816 5814 5812 5810 5808 5806 5803 5801 5798 5796 5793 5790 5788 5786 5783 5781 5779 5777 5775 5773 5772
5842 5841 5840 5839 5838 5837 5836 5835 5833 5832 5831 5829 5827 5826 5824 5823 5821 5819 5817 5815 5813 5811 5810 5807 5805 5803 5801 5798 5796 5793 5790 5788 5785 5782 5779 5776 5773 5771 5768 5766 5764 5762 5760
5837 5836 5835 5834 5833 5832 5831 5829 5828 5826 5825 5823 5822 5820 5819 5817 5815 5813 5811 5809 5806 5804 5802 5800 5797 5795 5792 5790 5788 5785 5782 5779 5776 5773 5770 5767 5763 5760 5757 5754 5751 5749 5747
5832 5831 5830 5829 5828 5826 5825 5824 5822 5820 5819 5817 5816 5814 5812 5810 5808 5806 5804 5802 5799 5796 5794 5791 5789 5786 5783 5781 5778 5775 5772 5770 5767 5763 5759 5757 5753 5749 5746 5742 5739 5736 5733
5826 5825 5824 5823 5822 5820 5819 5818 5816 5814 5813 5811 5809 5807 5806 5804 5802 5799 5797 5794 5791 5789 5786 5783 5780 5777 5774 5771 5768 5765 5762 5759 5756 5753 5748 5745 5742 5738 5735 5730 5726 5722 5719
5821 5819 5818 5817 5816 5814 5813 5811 5810 5808 5806 5804 5802 5800 5798 5796 5794 5791 5789 5786 5783 5781 5778 5775 5771 5768 5764 5761 5757 5754 5750 5747 5744 5741 5736 5732 5728 5724 5722 5719 5713 5709 5705